Content
SEND FEEDBACK

Daily
Averages
Monthly
Summary
United States of America

DEDEDO, GUAM


Home > North America > United States > Guam
Elevation: 364 feet     Latitude: 13 33N     Longitude: 144 49E

WEATHER
 
SELECT A DAY
Number of Records: 214,141;   Date Range: 1/1/95 - 10/30/14
 
SHARE

PRINT THIS DATA

[ ← Previous Day ]
WEATHER ALMANAC - FEBRUARY 2, 2013
[ Next Day → ]
[ °C ]   °F
Weather ElementAverageHighLow
Temperature78.8 °F84 °F (11:54 am)75.9 °F (1:54 am)
Dewpoint66.8 °F71.1 °F (4:54 pm)62.1 °F (2:54 am)
Humidity66.8 %82 % (4:54 pm)56 % (11:54 am)
Barometer29.98 in30.03 in (8:54 am)29.93 in (3:54 pm)
Wind Speed18.6 mph25.3 mph (9:54 am)
Wind Gust33.4 mph (10:54 am)
Weather ElementAverage
Visibility10 mi
Wind DirectionENE (61.7 °)

Weather ElementTotal
Precipitation0.01 in
Cooling Degree Days15 (Base 65)
Growing Degree Days30 (Base 50)
Averaged from 23 records on February 2, 2013
WEATHER CONDITIONS BREAKOUT
WIND DIRECTION BREAKOUT
WEATHER BY HOUR - FEBRUARY 2, 2013
[ °C ]   °F
Local TimeTemperatureDewpointHumidityBarometerVisibilityWind DirectionWind SpeedGust SpeedPrecipitationEventsConditions
1:54 AM75.9 °F64.0 °F67 %30.00 in10.0 miENE (60°)15.0 mphPartly Cloudy
2:54 AM75.9 °F62.1 °F62 %29.98 in10.0 miENE (60°)13.8 mphClear
3:54 AM75.9 °F63.0 °F64 %29.97 in10.0 miENE (70°)13.8 mphPartly Cloudy
4:54 AM75.9 °F66.0 °F71 %29.98 in10.0 miENE (70°)13.8 mphClear
5:54 AM75.9 °F66.0 °F71 %29.99 in10.0 miENE (70°)19.6 mph29.9 mph0.00 inRainLight Rain
6:54 AM75.9 °F68.0 °F76 %30.01 in10.0 miENE (60°)18.4 mph24.2 mph0.00 inMostly Cloudy
7:54 AM77.0 °F64.9 °F66 %30.02 in10.0 miENE (70°)18.4 mphClear
8:54 AM79.0 °F66.0 °F64 %30.03 in10.0 miENE (60°)21.9 mphClear
9:54 AM82.0 °F66.9 °F60 %30.02 in10.0 miENE (60°)25.3 mph31.1 mphPartly Cloudy
10:54 AM82.9 °F68.0 °F60 %30.00 in10.0 miENE (60°)24.2 mph33.4 mphClear
11:54 AM84.0 °F66.9 °F56 %29.99 in10.0 miENE (60°)23.0 mph32.2 mphPartly Cloudy
12:54 PM84.0 °F66.9 °F56 %29.97 in10.0 miENE (60°)21.9 mph29.9 mphScattered Clouds
1:54 PM82.0 °F66.9 °F60 %29.95 in10.0 miENE (60°)20.7 mph31.1 mphOvercast
2:54 PM82.0 °F66.9 °F60 %29.94 in10.0 miENE (60°)23.0 mph32.2 mphMostly Cloudy
3:54 PM82.0 °F68.0 °F62 %29.93 in10.0 miNE (50°)19.6 mph28.8 mphMostly Cloudy
4:54 PM77.0 °F71.1 °F82 %29.94 in9.0 miENE (60°)18.4 mph25.3 mph0.00 inRainLight Rain
5:54 PM79.0 °F68.0 °F69 %29.94 in10.0 miNE (50°)20.7 mph26.5 mph0.00 inMostly Cloudy
6:54 PM77.0 °F70.0 °F79 %29.96 in10.0 miENE (60°)18.4 mph0.01 inMostly Cloudy
7:54 PM77.0 °F68.0 °F74 %29.98 in10.0 miENE (60°)16.1 mphMostly Cloudy
8:54 PM78.1 °F66.9 °F68 %29.99 in10.0 miENE (60°)16.1 mphScattered Clouds
9:54 PM78.1 °F68.0 °F71 %30.00 in10.0 miENE (60°)17.3 mph25.3 mphScattered Clouds
10:54 PM78.1 °F66.9 °F68 %30.00 in10.0 miENE (70°)13.8 mph25.3 mphMostly Cloudy
11:54 PM78.1 °F68.0 °F71 %29.99 in10.0 miENE (70°)13.8 mphMostly Cloudy
Hourly data recorded from PGUM, located miles away from Dededo, Guam







STORIES FROM OUR PARTNERS